Location: Newark
(41.6478°N, 9.0078°E)
Time: 19:07:53
(UTC+00:00)

UWE-3 - Pass Details

Date: 29 January 2020
Orbit: 585 x 682 km, 97.6° (Epoch: 22 February)

Event Time Altitude Azimuth Distance (km) Brightness Sun altitude
Rises 17:30:59 0° 219° (SW) 2,810 ? -10.7°
Reaches altitude 10° 17:35:34 10° 267° (W) 1,910 ? -11.5°
Maximum altitude 17:35:51 10° 271° (W) 1,906 ? -11.6°
Drops below altitude 10° 17:36:08 10° 275° (W) 1,911 ? -11.6°
Sets 17:40:44 0° 322° (NW) 2,822 ? -12.5°
